Regional Weather Roundup
Issued by NWS

Home | Current Version | Previous Version | Text Only | Print | Product List | Glossary Off
Versions: 1 2 3 4 5 6 7 8 9 10 11 12 13 14 15 16 17 18 19 20 21 22 23 24 25 26 27 28 29 30 31 32 33 34 35 36 37 38 39 40 41 42 43 44 45 46 47 48 49 50

000
ASUS45 KTFX 240219
RWRMT
MONTANA HOURLY WEATHER ROUNDUP
NATIONAL WEATHER SERVICE GREAT FALLS MT
819 PM MDT WED APR 23 2014

NOTE: "FAIR" INDICATES FEW OR NO CLOUDS BELOW 12000 FEET WITH NO
SIGNIFICANT WEATHER AND/OR OBSTRUCTIONS TO VISIBILITY.

* THESE STATIONS ARE NOT UNDER NWS QUALITY CONTROL. THEY DO NOT
   REPORT WEATHER SUCH AS PRECIPITATION OR FOG.

MTZ001>007-043-240300-
WEST OF THE DIVIDE
CITY           SKY/WX    TMP DP  RH WIND       PRES   REMARKS
KALISPELL      CLOUDY    43  28  56 SW17      29.78R
MISSOULA       CLOUDY    45  30  56 CALM      29.87R
BUTTE          CLOUDY    37  23  57 W15G21    29.85R WCI  28
MULLAN PASS    CLOUDY    28  27  96 VRB7      29.79R WCI  21
* ESSEX        N/A       41  22  47 S9G15      N/A
* LINCOLN      N/A       38  25  60 S8G21      N/A   WCI  32
* LOOKOUT PASS N/A       34  30  85 SE9G14     N/A   WCI  27
* PLAINS APT   MOCLDY    45  32  60 CALM      29.86R
* POLSON       N/A       40  30  68 W1G6       N/A
* RONAN APT    MOCLDY    46  30  54 SW14G21    N/A
* SEELEY LAKE  N/A       37  31  79 E2G9       N/A
* THOMP F APT  CLOUDY    40  19  43 SW4G21     N/A
$$

MTZ008-052>055-240300-
SOUTHWEST MONTANA
CITY           SKY/WX    TMP DP  RH WIND       PRES   REMARKS
BOZEMAN        CLOUDY    45  25  45 SW15      29.83S
DILLON         MOCLDY    39  27  62 N6        29.86R WCI  35
W YELLOWSTONE  N/A       34  26  73 S3G9       N/A
* THREE FORKS  CLOUDY    46  27  48 W14        N/A
* BOULDER HILL N/A       37  15  41 SW4G24     N/A
* RAYNOLDS PAS N/A       36  22  57 SW9G14     N/A   WCI  29
* WHITEHALL    N/A       45  23  42 W11G22     N/A
* WISE RIVER   N/A       33  24  70 SW12G26    N/A   WCI  24
$$

MTZ009>010-012-014-046-048-049-054-240300-
EAST SLOPES AND CENTRAL MONTANA
CITY           SKY/WX    TMP DP  RH WIND       PRES   REMARKS
CUT BANK       PTCLDY    41  21  45 W18       29.66R
GREAT FALLS    MOCLDY    43  27  53 SW25G30   29.73R
HELENA         CLOUDY    45  25  45 W21G28    29.82R
MALMSTROM AFB  MOCLDY    46  25  44 SW20G29   29.71R
* CONRAD       MOCLDY    45  25  45 S18G24     N/A
* DEARBORN     N/A       45  26  47 SW11G22    N/A
* EAST GLACIER N/A       35  20  54 NW19G27    N/A   WCI  24
* MONARCH      N/A       38  11  33 W20G26     N/A   WCI  28
* PENDROY      N/A       38  26  62 W12G18     N/A   WCI  30
* ROGERS PASS  N/A       32  26  79 SE11G17    N/A   WCI  23
* SAINT MARY   N/A       36  20  52 SW9G19     N/A   WCI  29
* SWEET GRASS  N/A       45  18  34 SW26G34    N/A
* WHITE SULPH  N/A       39  20  46 SW3G17     N/A
$$

MTZ011-013-016-021-035-040-045-047-050-051-240300-
NORTH CENTRAL MONTANA
CITY           SKY/WX    TMP DP  RH WIND       PRES   REMARKS
HAVRE          MOCLDY    50  23  35 W25G35    29.63R
LEWISTOWN      MOCLDY    39  25  57 SW17      29.73R WCI  30
* CHINOOK      PTCLDY    52  21  30 SW20G28   29.62R
* FORT BENTON  CLOUDY    46  21  37 SW18      29.72R
* CHESTER      N/A       45  23  42 W18G30     N/A
* DENTON       N/A       45  16  31 SW16G22    N/A
* GEYSER       N/A       43  15  32 W28G33     N/A
* JUDITH GAP   N/A       37  26  64 SW12G29    N/A   WCI  29
* LOMA         N/A       50  25  38 SW12G26    N/A
$$

MTZ017>020-022>027-061-062-240300-
NORTHEAST MONTANA
CITY           SKY/WX    TMP DP  RH WIND       PRES   REMARKS
GLASGOW        PTCLDY    54  19  25 W16       29.59R
GLENDIVE       CLEAR     46  19  34 W10       29.67R
JORDAN         PTCLDY    54  16  22 W16       29.66R
SIDNEY         MOCLDY    46  27  48 SW8       29.64R
WOLF POINT     PTCLDY    57  16  20 W18       29.60R
* BEAVER HILL  N/A       51  20  29 W9         N/A
* CIRCLE       N/A       55  24  30 W6G12      N/A
* LINDSAY DVD  N/A       52  20  28 W14G22     N/A
* NAVAJO       N/A       52  27  38 NW14G21    N/A
* SACO         N/A       54  18  24 SW16G26    N/A
* SCOBEY APT   MOCLDY    52  25  35 W5        29.57R
$$

MTZ028>042-056>058-240300-
SOUTHCENTRAL AND SOUTHEAST MONTANA
CITY           SKY/WX    TMP DP  RH WIND       PRES   REMARKS
BAKER          PTCLDY    48  27  44 W12       29.69R
BILLINGS       PTCLDY    46  21  37 W21G26    29.77R
LIVINGSTON     PTCLDY    43  23  45 SW17      29.80R
MILES CITY     MOCLDY    54  21  27 W15       29.70R
* LAUREL APT   PTCLDY    50  18  28 W15G24     N/A
* ROUNDUP APT  MOCLDY    50  18  28 SW25G35    N/A
* HYSHAM       N/A       50  12  22 W13G23     N/A
* REED POINT   N/A       49  21  33 W20G29     N/A
* ROSCOE HILL  N/A       43   9  25 S4G12      N/A
$$

REGIONAL REPORTS...DAKOTAS
CITY           SKY/WX    TMP DP  RH WIND       PRES   REMARKS
WILLISTON      MOCLDY    52  37  57 CALM      29.60R
DICKINSON      CLOUDY    50  27  41 NW10      29.64R
CROSBY         N/A       45  45 100 SW7       29.60R
TIOGA          CLOUDY    45  45 100 SW3       29.64R
WATFORD CITY   CLEAR     48  28  46 W7        29.61R
BISMARCK       CLOUDY    50 N/A N/A NW8       29.68R
GRAND FORKS    LGT RAIN  41  37  86 SE22G32   29.84R
FARGO          LGT RAIN  41  37  86 SE16      29.83R
BUFFALO SD     PTCLDY    48  28  46 NW12      29.65R
RAPID CITY     CLOUDY    50  34  54 N16       29.73R
$$

REGIONAL REPORTS...WYOMING/IDAHO/WASHINGTON
CITY           SKY/WX    TMP DP  RH WIND       PRES   REMARKS
GILLETTE       CLOUDY    46  21  37 NW9       29.80R
SHERIDAN       PTCLDY    45  21  38 W10       29.79R
CODY           PTCLDY    43  18  37 W21G26    29.85S
YELLOWSTONE LA MOCLDY    27  19  72 W10G18    29.91F WCI  18
SALMON         PTCLDY    45  21  38 SW12      29.88R
MULLAN PASS    CLOUDY    28  27  96 VRB7      29.79S WCI  21
SAND POINT     PTCLDY    43  39  86 SW5       29.83S
SPOKANE        MOCLDY    46  32  58 SW15      29.83R
$$

REGIONAL REPORTS...ALBERTA
CITY           SKY/WX    TMP DP  RH WIND       PRES   REMARKS
CALGARY        N/A       39  32  76 VRB2      29.57R
LETHBRIDGE     PTCLDY    48  19  32 W32G43    29.57R
MEDICINE HAT   MOCLDY    52  37  57 N13       29.53R
EDMONTON       LGT RAIN  37  34  89 NW21G31   29.54R WCI  26
WATERTON GATE  N/A       41  16  36 SW22G33    N/A
CARDSTON       N/A       43  19  38 W14G21     N/A
MILK RIVER     N/A       45  19  35 W22G31     N/A
$$

REGIONAL REPORTS...SASKATCHEWAN
CITY           SKY/WX    TMP DP  RH WIND       PRES   REMARKS
SWIFT CURRENT  CLOUDY    45  39  80 SW10      29.50S
REGINA         LGT RAIN  43  43 100 SW5       29.52R
VAL MARIE      N/A       48  21  34 W9         N/A
ASSINIBOIA     N/A       45  43  93 SW9        N/A
CORONACH       N/A       48  34  59 W5         N/A

$$




USA.gov is the U.S. government's official web portal to all federal, state and local government web resources and services.